TimeMDT,TemperatureF,Dew PointF,Humidity,Sea Level PressureIn,VisibilityMPH,Wind Direction,Wind SpeedMPH,Gust SpeedMPH,PrecipitationIn,Events,Conditions,WindDirDegrees,DateUTC
12:52 AM,57.9,44.1,60,30.12,10.0,SE,6.9,-,N/A,,Clear,130,2013-07-18 06:52:00
1:52 AM,55.9,46.0,69,30.12,10.0,ESE,10.4,-,N/A,,Clear,120,2013-07-18 07:52:00
2:52 AM,53.1,46.9,80,30.12,10.0,East,6.9,-,N/A,,Clear,100,2013-07-18 08:52:00
3:52 AM,50.0,46.0,86,30.14,10.0,ESE,6.9,-,N/A,,Clear,120,2013-07-18 09:52:00
4:52 AM,48.9,45.0,86,30.14,10.0,SE,6.9,-,N/A,,Clear,140,2013-07-18 10:52:00
5:52 AM,46.9,44.1,90,30.15,10.0,SSW,5.8,-,N/A,,Clear,210,2013-07-18 11:52:00
6:52 AM,53.1,46.9,80,30.14,10.0,WNW,3.5,-,N/A,,Clear,300,2013-07-18 12:52:00
7:52 AM,55.9,46.0,69,30.14,10.0,Calm,Calm,-,N/A,,Clear,0,2013-07-18 13:52:00
8:52 AM,60.1,46.9,62,30.16,10.0,Calm,Calm,-,N/A,,Clear,0,2013-07-18 14:52:00
9:52 AM,64.0,46.9,54,30.13,10.0,Calm,Calm,-,N/A,,Clear,0,2013-07-18 15:52:00
10:52 AM,69.1,48.0,47,30.10,10.0,Calm,Calm,-,N/A,,Clear,0,2013-07-18 16:52:00
11:52 AM,75.0,46.9,37,30.06,10.0,Calm,Calm,-,N/A,,Clear,0,2013-07-18 17:52:00
12:52 PM,78.1,46.9,33,30.04,10.0,ENE,5.8,-,N/A,,Clear,60,2013-07-18 18:52:00
1:52 PM,80.1,48.0,32,30.01,10.0,East,9.2,-,N/A,,Clear,80,2013-07-18 19:52:00
2:52 PM,82.9,48.0,29,29.99,10.0,Variable,3.5,-,N/A,,Clear,0,2013-07-18 20:52:00
3:52 PM,84.0,44.1,25,29.96,10.0,Calm,Calm,-,N/A,,Scattered Clouds,0,2013-07-18 21:52:00
4:00 PM,86.0,44.6,23,30.25,10.0,NNE,5.8,-,N/A,Thunderstorm,Scattered Clouds,30,2013-07-18 22:00:00
4:41 PM,69.8,53.6,56,30.25,6.0,ESE,29.9,39.1,0.00,Rain,Light Rain,120,2013-07-18 22:41:00
4:52 PM,63.0,54.0,72,30.06,4.0,SE,12.7,-,0.05,Rain,Rain,130,2013-07-18 22:52:00
5:04 PM,66.2,57.2,73,30.27,8.0,Calm,Calm,-,0.06,Rain-Thunderstorm,Light Thunderstorms and Rain,0,2013-07-18 23:04:00
6:52 PM,69.1,61.0,75,30.05,10.0,NE,3.5,-,0.07,,Clear,50,2013-07-19 00:52:00
7:52 PM,63.0,53.1,70,30.09,10.0,North,12.7,23.0,N/A,,Mostly Cloudy,10,2013-07-19 01:52:00
8:18 PM,62.6,53.6,72,30.37,10.0,NNW,13.8,-,N/A,,Mostly Cloudy,330,2013-07-19 02:18:00
8:52 PM,62.1,52.0,70,30.13,10.0,NNW,18.4,21.9,N/A,,Clear,340,2013-07-19 02:52:00
9:52 PM,60.1,51.1,72,30.14,10.0,North,12.7,18.4,N/A,,Scattered Clouds,10,2013-07-19 03:52:00
10:52 PM,60.1,52.0,75,30.12,10.0,NNE,9.2,-,N/A,,Mostly Cloudy,20,2013-07-19 04:52:00
11:52 PM,59.0,51.1,75,30.09,10.0,Calm,Calm,-,N/A,,Scattered Clouds,0,2013-07-19 05:52:00